Location: Dulzura
(32.6442°N, 116.7814°W)
Time: 06:26:40
(UTC+00:00)

Envisat - Visible Passes

Search period start: 30 September 2023 00:00
Search period end: 10 October 2023 00:00
Orbit: 763 x 764 km, 98.2° (Epoch: 29 September)

Date Brightness Start Highest point End Pass type
(mag) Time Alt. Az. Time Alt. Az. Time Alt. Az.
30 Sep 3.2 11:25:09 10° NNE 11:29:19 61° N 11:29:19 61° N visible
01 Oct 4.6 10:48:19 10° NNE 10:51:34 31° ENE 10:51:34 31° ENE visible
01 Oct 4.3 12:28:00 10° NNW 12:31:41 21° WNW 12:31:43 21° WNW visible
02 Oct 5.8 10:12:44 10° ENE 10:13:48 13° ENE 10:13:48 13° ENE visible
02 Oct 3.4 11:49:53 10° N 11:53:57 44° NW 11:53:57 44° NW visible
03 Oct 3.8 11:12:34 10° NNE 11:16:11 46° NE 11:16:11 46° NE visible
03 Oct 4.8 12:54:24 10° NW 12:55:57 11° WNW 12:56:20 11° WNW visible
04 Oct 5.2 10:36:02 10° NE 10:38:25 22° ENE 10:38:25 22° ENE visible
04 Oct 4.0 12:14:57 10° NNW 12:18:35 26° WNW 12:18:35 26° WNW visible
05 Oct 3.5 11:37:09 10° N 11:40:48 46° NNW 11:40:48 46° NNW visible
06 Oct 4.5 11:00:04 10° NNE 11:03:02 32° NE 11:03:02 32° NE visible
06 Oct 4.6 12:40:37 10° NNW 12:43:11 15° WNW 12:43:11 15° WNW visible
07 Oct 5.7 10:23:54 10° NE 10:25:15 15° ENE 10:25:15 15° ENE visible
07 Oct 3.9 12:02:02 10° N 12:05:25 31° NW 12:05:25 31° NW visible
08 Oct 3.9 11:24:29 10° NNE 11:27:38 39° N 11:27:38 39° N visible
09 Oct 5.1 10:47:39 10° NNE 10:49:50 23° NE 10:49:50 23° NE visible
09 Oct 4.4 12:27:20 10° NNW 12:30:00 19° NW 12:30:00 19° NW visible
